Hourly Weather Roundup
Issued by NWS Central Illinois

Home | Current Version | Previous Version | Text Only | Print | Product List | Glossary Off
Versions: 1 2 3 4 5 6 7 8 9 10 11 12 13 14 15 16 17 18 19 20 21 22 23 24 25 26 27 28 29 30 31 32 33 34 35 36 37 38 39 40 41 42 43 44 45 46 47 48 49 50

000
NZUS43 KILX 051910
HWRILX

AREA WEATHER ROUNDUP
NATIONAL WEATHER SERVICE, LINCOLN IL
200 PM CDT THU MAY 05 2016


CITY           SKY/WX    TMP DP  RH WIND       PRES   REMARKS
BLOOMINGTON    MOSUNNY   64  47  54 N14       30.00F
CHAMPAIGN      MOSUNNY   66  45  46 N16G26    29.96F
DANVILLE       MOSUNNY   62  46  56 N16       29.93S
DECATUR        MOSUNNY   64  47  53 N15G23    29.99F
EFFINGHAM      CLOUDY    59  49  70 NW7       30.00S
FLORA          CLOUDY    59  46  60 N12       29.99S
GALESBURG      SUNNY     62  42  47 NW6       30.04S
JACKSONVILLE   SUNNY     63  41  44 NW8       30.03S
LACON          SUNNY     61  45  54 N7        30.01F
LAWRENCEVILLE  PTSUNNY   58  46  64 NW15G22   29.97S
LITCHFIELD     MOSUNNY   60  43  53 N15       30.02S
$$


CITY           SKY/WX    TMP DP  RH WIND       PRES   REMARKS
LINCOLN        MOSUNNY   64  47  54 N10G16    30.00F
MACOMB         SUNNY     63  37  37 N10G17    30.06S
MATTOON        PTSUNNY   61  45  55 N17G24    29.96F
MT CARMEL AP   PTSUNNY   57  45  62 N9G17     29.97R
OLNEY-NOBLE AP CLOUDY    55  45  67 N9G16     29.98F
PARIS          MOSUNNY   61  48  62 N8        29.96S
PEORIA         SUNNY     64  44  48 NE8       30.02F
PONTIAC        MOSUNNY   64  46  52 NW12G18   30.00S
RANTOUL        MOSUNNY   65  44  46 N15G21    29.97S
ROBINSON       PTSUNNY   57  47  70 N7        29.96F
SPRINGFIELD    MOSUNNY   65  45  48 N10G20    30.02F
TAYLORVILLE    PTSUNNY   62  44  52 N13G20    30.01S
$$

...REGIONAL REPORTS...


CITY           SKY/WX    TMP DP  RH WIND       PRES   REMARKS
CHICAGO O`HARE SUNNY     61  43  51 NE12      29.99F
KANKAKEE       SUNNY     61  43  51 N10G17    29.99S
MOLINE         SUNNY     64  39  39 NW10      30.03F
MOUNT STERLING SUNNY     61  38  42 N10G16    30.04S
MOUNT VERNON   CLOUDY    55  43  62 NW7       30.01S
PITTSFIELD     SUNNY     63  42  45 N9        30.05S
QUINCY         SUNNY     62  42  47 VRB6      30.05F
ROCKFORD       SUNNY     64  40  41 N12       30.04S
$$


CITY           SKY/WX    TMP DP  RH WIND       PRES   REMARKS
BURLINGTON     SUNNY     63  41  44 N12       30.05S
CEDAR RAPIDS   SUNNY     64  40  41 VRB6      30.05F
DES MOINES     MOSUNNY   66  33  29 CALM      30.08F
KIRKSVILLE     MOSUNNY   66  34  30 N13       30.07F
OTTUMWA        SUNNY     65  33  30 N10       30.07S
ST LOUIS       MOSUNNY   64  42  44 N16       30.03F
$$


CITY           SKY/WX    TMP DP  RH WIND       PRES   REMARKS
TERRE HAUTE    PTSUNNY   60  46  59 NW13G21   29.94F
EVANSVILLE     PTSUNNY   56  44  64 NW12G24   29.96R
INDIANAPOLIS   PTSUNNY   57  45  64 N13G22    29.91F
LAFAYETTE      MOSUNNY   61  46  57 N10G20    29.94F
MADISON        SUNNY     62  36  37 N8        30.01F
MILWAUKEE      SUNNY     54  40  59 NE10      30.02F
$$





USA.gov is the U.S. government's official web portal to all federal, state and local government web resources and services.